Location: Bouchavesnes-Bergen
(49.9859°N, 2.9203°E)
Time: 05:05:00
(UTC+00:00)

COSMO-SKYMED 1 - Pass Details

Date: 09 March 2021
Orbit: 621 x 623 km, 97.9° (Epoch: 11 April)

Event Time Altitude Azimuth Distance (km) Brightness Sun altitude
Rises 04:36:34 0° 157° (SSE) 2,894 6.1 -16.5°
Reaches altitude 10° 04:38:45 10° 155° (SSE) 1,992 5.3 -16.2°
Maximum altitude 04:43:04 68° 73° (ENE) 675 2.9 -15.5°
Drops below altitude 10° 04:47:24 10° 351° (N) 2,007 5.2 -14.8°
Sets 04:49:36 0° 349° (NNW) 2,918 6.0 -14.5°
